QPF
0.05 0.06 0.07 0.07 0.05 0.03 0.02 0.02 0.02 0.02 0.01 0.01 0.02 0.02 0.02 0.03 0.04 0.04 0.02 0.03 0.04 0.05 0.07 0.07 0.06 0.06 0.08 0.10 0.10 0.06 0.04 0.03 0.03 0.04 0.04 0.02 0.03 0.03 0.04 0.04 0.05 0.05 0.04
0.05 0.05 0.06 0.08 0.06 0.04 0.02 0.01 0.01 0.01 0.01 0.02 0.02 0.02 0.03 0.03 0.03 0.03 0.02 0.02 0.02 0.03 0.04 0.06 0.05 0.05 0.07 0.07 0.07 0.08 0.05 0.03 0.04 0.05 0.05 0.04 0.03 0.02 0.02 0.03 0.05 0.07 0.06
0.08 0.07 0.06 0.08 0.07 0.06 0.03 0.01 0.01 0.02 0.02 0.02 0.03 0.04 0.04 0.03 0.03 0.02 0.02 0.02 0.02 0.01 0.02 0.03 0.03 0.05 0.05 0.04 0.05 0.05 0.05 0.04 0.03 0.04 0.06 0.06 0.05 0.03 0.03 0.03 0.04 0.06 0.08
0.06 0.04 0.05 0.06 0.07 0.07 0.04 0.03 0.04 0.03 0.03 0.03 0.05 0.06 0.05 0.04 0.04 0.02 0.02 0.02 0.02 0.02 0.02 0.03 0.03 0.04 0.05 0.05 0.04 0.04 0.04 0.04 0.04 0.05 0.06 0.07 0.06 0.05 0.05 0.04 0.04 0.05 0.07
0.05 0.06 0.06 0.06 0.06 0.07 0.06 0.06 0.06 0.04 0.03 0.04 0.05 0.05 0.05 0.04 0.03 0.02 0.03 0.03 0.03 0.02 0.01 0.02 0.03 0.04 0.05 0.06 0.05 0.04 0.04 0.04 0.04 0.05 0.06 0.06 0.06 0.06 0.07 0.05 0.05 0.06 0.07
0.06 0.07 0.09 0.09 0.07 0.06 0.06 0.06 0.05 0.04 0.03 0.03 0.03 0.04 0.04 0.04 0.04 0.03 0.03 0.02 0.03 0.03 0.03 0.02 0.04 0.04 0.04 0.05 0.06 0.05 0.04 0.05 0.06 0.06 0.06 0.07 0.06 0.05 0.06 0.06 0.05 0.05 0.06
0.04 0.05 0.07 0.07 0.06 0.06 0.05 0.05 0.05 0.04 0.03 0.03 0.02 0.02 0.03 0.03 0.03 0.04 0.03 0.03 0.03 0.03 0.04 0.03 0.04 0.04 0.03 0.04 0.05 0.04 0.04 0.04 0.06 0.06 0.05 0.05 0.06 0.06 0.06 0.06 0.05 0.05 0.05
0.03 0.04 0.05 0.05 0.05 0.06 0.05 0.04 0.05 0.06 0.05 0.03 0.03 0.02 0.03 0.02 0.03 0.03 0.03 0.03 0.04 0.03 0.04 0.03 0.04 0.04 0.04 0.05 0.05 0.04 0.04 0.04 0.04 0.04 0.04 0.05 0.06 0.07 0.05 0.04 0.05 0.06 0.06
0.02 0.03 0.05 0.05 0.04 0.06 0.07 0.06 0.07 0.07 0.06 0.06 0.06 0.04 0.02 0.02 0.03 0.04 0.05 0.05 0.04 0.03 0.04 0.04 0.05 0.05 0.04 0.06 0.07 0.05 0.04 0.04 0.04 0.04 0.05 0.05 0.05 0.06 0.06 0.05 0.05 0.06 0.05
0.02 0.02 0.03 0.05 0.05 0.05 0.06 0.06 0.08 0.08 0.07 0.06 0.08 0.07 0.04 0.02 0.03 0.03 0.04 0.05 0.05 0.05 0.05 0.05 0.06 0.05 0.04 0.04 0.05 0.06 0.07 0.07 0.06 0.06 0.06 0.06 0.06 0.06 0.06 0.05 0.05 0.05 0.05
0.02 0.01 0.01 0.03 0.04 0.05 0.06 0.06 0.05 0.05 0.04 0.04 0.05 0.06 0.06 0.05 0.04 0.03 0.03 0.04 0.06 0.06 0.07 0.06 0.05 0.05 0.05 0.06 0.07 0.06 0.06 0.07 0.07 0.07 0.07 0.07 0.07 0.07 0.07 0.06 0.06 0.06 0.05
0.02 0.01 0.02 0.01 0.01 0.02 0.04 0.05 0.04 0.04 0.04 0.03 0.02 0.03 0.04 0.05 0.04 0.03 0.04 0.03 0.04 0.05 0.05 0.04 0.04 0.04 0.06 0.07 0.08 0.06 0.05 0.05 0.05 0.04 0.04 0.04 0.05 0.06 0.06 0.06 0.06 0.06 0.06
0.02 0.02 0.01 0.01 0.01 0.01 0.01 0.02 0.02 0.02 0.02 0.02 0.02 0.02 0.03 0.03 0.03 0.03 0.04 0.04 0.05 0.05 0.04 0.03 0.02 0.03 0.05 0.06 0.07 0.08 0.06 0.04 0.04 0.03 0.02 0.03 0.03 0.04 0.04 0.05 0.05 0.05 0.05
0.01 0.01 0.01 0.01 0.01 0.01 0.01 0.01 0.02 0.02 0.01 0.01 0.02 0.02 0.02 0.02 0.02 0.03 0.05 0.06 0.05 0.05 0.04 0.03 0.02 0.03 0.05 0.05 0.04 0.04 0.05 0.04 0.04 0.03 0.03 0.03 0.04 0.04 0.03 0.04 0.05 0.04 0.03
0.01 0.02 0.01 0.01 0.01 0.01 0.01 0.01 0.02 0.02 0.01 0.01 0.01 0.02 0.02 0.02 0.03 0.04 0.05 0.05 0.05 0.05 0.04 0.03 0.03 0.02 0.04 0.04 0.04 0.03 0.03 0.04 0.04 0.04 0.03 0.03 0.04 0.05 0.04 0.04 0.05 0.04 0.03
0.01 0.01 0.01 0.01 0.00 0.01 0.01 0.01 0.01 0.01 0.01 0.01 0.01 0.02 0.02 0.04 0.05 0.04 0.05 0.04 0.03 0.02 0.02 0.02 0.02 0.02 0.02 0.03 0.03 0.03 0.02 0.02 0.03 0.03 0.03 0.03 0.03 0.04 0.03 0.03 0.04 0.04 0.03
0.01 0.01 0.01 0.01 0.01 0.01 0.01 0.01 0.01 0.01 0.01 0.01 0.01 0.02 0.04 0.04 0.03 0.03 0.03 0.02 0.02 0.02 0.01 0.01 0.01 0.01 0.01 0.01 0.01 0.02 0.02 0.02 0.02 0.02 0.02 0.03 0.03 0.03 0.03 0.04 0.04 0.03 0.02
0.01 0.01 0.01 0.01 0.01 0.01 0.01 0.01 0.01 0.01 0.02 0.03 0.04 0.06 0.04 0.02 0.02 0.02 0.01 0.01 0.01 0.01 0.01 0.01 0.01 0.01 0.01 0.00 0.00 0.01 0.02 0.02 0.02 0.01 0.02 0.02 0.03 0.03 0.03 0.04 0.04 0.03 0.03
0.00 0.01 0.01 0.01 0.01 0.01 0.01 0.02 0.03 0.03 0.03 0.04 0.04 0.04 0.02 0.01 0.01 0.01 0.01 0.01 0.01 0.01 0.00 0.00 0.00 0.01 0.01 0.00 0.00 0.00 0.01 0.02 0.02 0.01 0.02 0.02 0.04 0.04 0.04 0.05 0.05 0.05 0.04
0.01 0.01 0.01 0.01 0.01 0.02 0.02 0.03 0.03 0.02 0.02 0.02 0.02 0.01 0.00 0.00 0.01 0.01 0.01 0.01 0.01 0.01 0.00 0.00 0.00 0.01 0.01 0.00 0.00 0.00 0.01 0.01 0.01 0.02 0.04 0.04 0.04 0.04 0.06 0.07 0.05 0.04 0.03
0.01 0.00 0.01 0.01 0.01 0.02 0.01 0.01 0.01 0.01 0.00 0.00 0.00 0.00 0.00 0.00 0.01 0.01 0.01 0.01 0.01 0.01 0.01 0.01 0.01 0.02 0.02 0.01 0.01 0.02 0.02 0.03 0.05 0.07 0.06 0.05 0.05 0.05 0.05 0.03 0.02 0.02 0.02
0.01 0.01 0.01 0.01 0.01 0.01 0.01 0.01 0.01 0.00 0.00 0.00 0.01 0.00 0.00 0.00 0.00 0.01 0.01 0.01 0.01 0.01 0.01 0.01 0.01 0.02 0.02 0.02 0.03 0.04 0.04 0.05 0.05 0.05 0.04 0.04 0.04 0.03 0.03 0.02 0.02 0.01 0.01
0.01 0.01 0.01 0.01 0.01 0.01 0.01 0.01 0.01 0.00 0.00 0.00 0.01 0.00 0.00 0.00 0.00 0.00 0.00 0.00 0.01 0.01 0.01 0.01 0.01 0.01 0.01 0.01 0.01 0.01 0.02 0.02 0.02 0.02 0.01 0.01 0.02 0.03 0.03 0.04 0.03 0.03 0.02
0.00 0.00 0.01 0.01 0.01 0.01 0.01 0.01 0.01 0.01 0.00 0.00 0.00 0.00 0.00 0.00 0.00 0.00 0.00 0.00 0.00 0.00 0.00 0.00 0.00 0.00 0.00 0.00 0.00 0.01 0.02 0.02 0.01 0.01 0.01 0.01 0.01 0.02 0.02 0.04 0.04 0.04 0.04
0.00 0.01 0.01 0.01 0.01 0.01 0.01 0.01 0.01 0.01 0.00 0.00 0.00 0.00 0.00 0.00 0.00 0.00 0.00 0.00 0.00 0.00 0.00 0.00 0.00 0.00 0.00 0.00 0.01 0.02 0.01 0.01 0.01 0.01 0.01 0.01 0.01 0.01 0.02 0.02 0.03 0.04 0.03
0.00 0.01 0.01 0.01 0.01 0.01 0.01 0.01 0.01 0.01 0.00 0.00 0.00 0.00 0.00 0.00 0.00 0.00 0.00 0.00 0.00 0.00 0.00 0.00 0.00 0.00 0.00 0.00 0.01 0.01 0.01 0.01 0.01 0.01 0.01 0.01 0.01 0.01 0.02 0.02 0.03 0.03 0.04
MSLP
1009.29 1009.68 1010.00 1010.27 1010.51 1010.72 1010.92 1011.10 1011.24 1011.33 1011.35 1011.29 1011.15 1010.93 1010.64 1010.32 1009.98 1009.64 1009.33 1009.03 1008.75 1008.48 1008.21 1007.92 1007.63 1007.31 1006.98 1006.63 1006.27 1005.90 1005.52 1005.14 1004.77 1004.41 1004.09 1003.82 1003.62 1003.51 1003.50 1003.58 1003.76 1004.01 1004.34
1008.89 1009.32 1009.69 1010.00 1010.27 1010.51 1010.73 1010.93 1011.09 1011.19 1011.23 1011.19 1011.07 1010.87 1010.60 1010.29 1009.95 1009.62 1009.29 1008.99 1008.71 1008.44 1008.18 1007.90 1007.62 1007.31 1006.99 1006.64 1006.28 1005.91 1005.53 1005.15 1004.78 1004.43 1004.11 1003.84 1003.63 1003.49 1003.45 1003.49 1003.61 1003.80 1004.05
1008.28 1008.76 1009.19 1009.58 1009.92 1010.22 1010.49 1010.71 1010.89 1011.02 1011.08 1011.07 1010.97 1010.79 1010.55 1010.26 1009.94 1009.62 1009.31 1009.02 1008.75 1008.48 1008.22 1007.96 1007.67 1007.37 1007.05 1006.70 1006.34 1005.97 1005.59 1005.22 1004.86 1004.53 1004.23 1003.98 1003.79 1003.67 1003.62 1003.65 1003.74 1003.89 1004.08
1007.52 1008.07 1008.59 1009.08 1009.51 1009.89 1010.21 1010.49 1010.70 1010.86 1010.94 1010.95 1010.88 1010.73 1010.53 1010.27 1009.99 1009.69 1009.40 1009.12 1008.86 1008.60 1008.34 1008.08 1007.79 1007.48 1007.15 1006.80 1006.44 1006.07 1005.70 1005.34 1005.00 1004.69 1004.43 1004.22 1004.07 1003.99 1003.97 1004.02 1004.11 1004.25 1004.40
1006.72 1007.34 1007.96 1008.55 1009.09 1009.56 1009.96 1010.29 1010.55 1010.73 1010.85 1010.88 1010.84 1010.72 1010.55 1010.33 1010.08 1009.81 1009.54 1009.28 1009.01 1008.76 1008.49 1008.22 1007.93 1007.61 1007.28 1006.92 1006.56 1006.18 1005.82 1005.48 1005.16 1004.88 1004.66 1004.50 1004.40 1004.37 1004.41 1004.49 1004.61 1004.76 1004.90
1005.99 1006.66 1007.37 1008.06 1008.70 1009.26 1009.74 1010.13 1010.43 1010.65 1010.79 1010.85 1010.84 1010.75 1010.61 1010.42 1010.19 1009.94 1009.69 1009.43 1009.16 1008.90 1008.63 1008.34 1008.04 1007.72 1007.38 1007.02 1006.66 1006.29 1005.94 1005.61 1005.31 1005.06 1004.88 1004.76 1004.71 1004.74 1004.83 1004.96 1005.13 1005.29 1005.45
1005.36 1006.08 1006.86 1007.63 1008.35 1008.99 1009.54 1009.99 1010.34 1010.59 1010.76 1010.84 1010.85 1010.79 1010.67 1010.50 1010.29 1010.05 1009.79 1009.53 1009.25 1008.97 1008.69 1008.39 1008.08 1007.76 1007.43 1007.08 1006.72 1006.37 1006.03 1005.71 1005.43 1005.21 1005.05 1004.96 1004.95 1005.02 1005.15 1005.34 1005.54 1005.75 1005.93
1004.89 1005.62 1006.42 1007.24 1008.02 1008.72 1009.32 1009.81 1010.20 1010.49 1010.68 1010.79 1010.82 1010.78 1010.68 1010.52 1010.32 1010.08 1009.81 1009.53 1009.25 1008.95 1008.65 1008.35 1008.04 1007.73 1007.41 1007.08 1006.75 1006.42 1006.10 1005.80 1005.53 1005.32 1005.17 1005.09 1005.10 1005.19 1005.36 1005.57 1005.81 1006.04 1006.26
1004.56 1005.26 1006.06 1006.88 1007.67 1008.40 1009.03 1009.56 1009.98 1010.30 1010.52 1010.66 1010.71 1010.69 1010.60 1010.45 1010.25 1010.01 1009.74 1009.44 1009.14 1008.83 1008.53 1008.23 1007.93 1007.64 1007.35 1007.06 1006.76 1006.46 1006.17 1005.88 1005.63 1005.41 1005.26 1005.19 1005.19 1005.28 1005.44 1005.66 1005.92 1006.17 1006.41
1004.36 1005.00 1005.74 1006.52 1007.29 1008.01 1008.65 1009.20 1009.65 1010.00 1010.26 1010.42 1010.50 1010.51 1010.43 1010.30 1010.10 1009.86 1009.58 1009.27 1008.96 1008.65 1008.35 1008.06 1007.79 1007.54 1007.29 1007.04 1006.79 1006.53 1006.26 1006.00 1005.75 1005.54 1005.38 1005.28 1005.26 1005.33 1005.47 1005.68 1005.92 1006.18 1006.42
1004.30 1004.84 1005.48 1006.18 1006.89 1007.58 1008.21 1008.76 1009.23 1009.61 1009.89 1010.09 1010.21 1010.24 1010.19 1010.07 1009.88 1009.65 1009.37 1009.07 1008.76 1008.46 1008.17 1007.91 1007.67 1007.46 1007.26 1007.06 1006.86 1006.65 1006.42 1006.18 1005.94 1005.72 1005.54 1005.42 1005.37 1005.40 1005.51 1005.68 1005.90 1006.14 1006.37
1004.41 1004.81 1005.33 1005.93 1006.55 1007.18 1007.77 1008.32 1008.79 1009.19 1009.50 1009.73 1009.88 1009.94 1009.92 1009.83 1009.66 1009.44 1009.17 1008.88 1008.59 1008.30 1008.04 1007.80 1007.60 1007.43 1007.27 1007.12 1006.97 1006.80 1006.61 1006.39 1006.17 1005.96 1005.77 1005.63 1005.55 1005.54 1005.61 1005.74 1005.91 1006.12 1006.32
1004.72 1004.99 1005.37 1005.84 1006.37 1006.91 1007.46 1007.97 1008.43 1008.83 1009.17 1009.42 1009.59 1009.68 1009.69 1009.62 1009.48 1009.27 1009.03 1008.75 1008.47 1008.20 1007.95 1007.74 1007.56 1007.42 1007.30 1007.19 1007.08 1006.94 1006.78 1006.60 1006.40 1006.20 1006.02 1005.87 1005.78 1005.74 1005.78 1005.87 1006.00 1006.16 1006.33
1005.26 1005.40 1005.66 1006.00 1006.42 1006.88 1007.35 1007.82 1008.25 1008.64 1008.96 1009.22 1009.40 1009.51 1009.53 1009.48 1009.35 1009.17 1008.93 1008.67 1008.40 1008.14 1007.90 1007.69 1007.53 1007.39 1007.29 1007.20 1007.11 1007.00 1006.87 1006.72 1006.55 1006.38 1006.22 1006.08 1005.99 1005.95 1005.97 1006.04 1006.14 1006.26 1006.39
1006.04 1006.07 1006.21 1006.45 1006.76 1007.13 1007.52 1007.91 1008.29 1008.64 1008.93 1009.16 1009.33 1009.43 1009.45 1009.40 1009.28 1009.11 1008.88 1008.62 1008.35 1008.08 1007.83 1007.61 1007.43 1007.28 1007.17 1007.07 1006.99 1006.90 1006.79 1006.67 1006.54 1006.41 1006.28 1006.18 1006.12 1006.10 1006.13 1006.19 1006.27 1006.38 1006.48
1006.99 1006.95 1007.00 1007.14 1007.35 1007.62 1007.92 1008.23 1008.53 1008.80 1009.03 1009.21 1009.34 1009.41 1009.42 1009.35 1009.23 1009.04 1008.81 1008.54 1008.25 1007.96 1007.67 1007.42 1007.20 1007.03 1006.88 1006.77 1006.68 1006.59 1006.51 1006.42 1006.33 1006.24 1006.17 1006.12 1006.10 1006.12 1006.17 1006.24 1006.34 1006.43 1006.52
1007.99 1007.91 1007.90 1007.97 1008.09 1008.26 1008.45 1008.66 1008.85 1009.03 1009.17 1009.28 1009.35 1009.38 1009.35 1009.26 1009.12 1008.92 1008.67 1008.38 1008.06 1007.73 1007.41 1007.11 1006.84 1006.61 1006.43 1006.29 1006.17 1006.09 1006.01 1005.95 1005.90 1005.86 1005.85 1005.85 1005.89 1005.95 1006.04 1006.15 1006.26 1006.36 1006.45
1008.91 1008.81 1008.75 1008.75 1008.79 1008.86 1008.95 1009.03 1009.11 1009.17 1009.22 1009.25 1009.25 1009.22 1009.16 1009.05 1008.90 1008.68 1008.42 1008.11 1007.76 1007.39 1007.02 1006.67 1006.35 1006.07 1005.85 1005.67 1005.54 1005.45 1005.38 1005.34 1005.32 1005.33 1005.36 1005.42 1005.50 1005.61 1005.73 1005.87 1006.00 1006.12 1006.21
1009.59 1009.47 1009.38 1009.32 1009.28 1009.24 1009.21 1009.18 1009.14 1009.09 1009.04 1008.99 1008.93 1008.87 1008.79 1008.67 1008.51 1008.31 1008.04 1007.72 1007.35 1006.96 1006.55 1006.16 1005.80 1005.49 1005.23 1005.03 1004.88 1004.78 1004.72 1004.69 1004.70 1004.73 1004.78 1004.87 1004.98 1005.11 1005.26 1005.42 1005.57 1005.70 1005.80
1009.95 1009.81 1009.68 1009.55 1009.42 1009.28 1009.13 1008.98 1008.82 1008.68 1008.55 1008.45 1008.36 1008.28 1008.21 1008.11 1007.98 1007.79 1007.55 1007.24 1006.88 1006.48 1006.06 1005.65 1005.27 1004.94 1004.66 1004.45 1004.30 1004.19 1004.13 1004.11 1004.12 1004.15 1004.21 1004.29 1004.40 1004.53 1004.68 1004.84 1004.99 1005.13 1005.24
1009.98 1009.80 1009.61 1009.40 1009.17 1008.93 1008.67 1008.40 1008.16 1007.94 1007.76 1007.63 1007.54 1007.49 1007.45 1007.41 1007.33 1007.19 1006.99 1006.72 1006.39 1006.01 1005.60 1005.20 1004.83 1004.50 1004.23 1004.02 1003.86 1003.76 1003.70 1003.66 1003.65 1003.66 1003.68 1003.73 1003.81 1003.91 1004.03 1004.16 1004.30 1004.43 1004.54
1009.75 1009.51 1009.24 1008.94 1008.61 1008.25 1007.89 1007.54 1007.22 1006.95 1006.75 1006.63 1006.57 1006.57 1006.60 1006.62 1006.62 1006.56 1006.42 1006.20 1005.92 1005.58 1005.21 1004.84 1004.49 1004.19 1003.93 1003.74 1003.59 1003.48 1003.40 1003.34 1003.29 1003.25 1003.22 1003.20 1003.21 1003.25 1003.32 1003.42 1003.53 1003.64 1003.75
1009.39 1009.08 1008.72 1008.31 1007.87 1007.41 1006.96 1006.53 1006.16 1005.87 1005.67 1005.58 1005.58 1005.64 1005.74 1005.85 1005.92 1005.93 1005.87 1005.71 1005.48 1005.19 1004.87 1004.54 1004.23 1003.96 1003.73 1003.55 1003.41 1003.30 1003.20 1003.09 1002.99 1002.87 1002.76 1002.66 1002.59 1002.56 1002.56 1002.61 1002.69 1002.79 1002.90
1009.06 1008.65 1008.19 1007.68 1007.14 1006.59 1006.06 1005.57 1005.17 1004.87 1004.70 1004.64 1004.69 1004.81 1004.98 1005.16 1005.29 1005.36 1005.34 1005.24 1005.05 1004.81 1004.52 1004.24 1003.97 1003.73 1003.53 1003.37 1003.23 1003.10 1002.96 1002.81 1002.64 1002.44 1002.24 1002.06 1001.90 1001.79 1001.73 1001.73 1001.78 1001.87 1001.99
1008.85 1008.35 1007.80 1007.20 1006.58 1005.96 1005.36 1004.84 1004.42 1004.12 1003.96 1003.93 1004.01 1004.17 1004.38 1004.58 1004.74 1004.84 1004.84 1004.75 1004.59 1004.37 1004.11 1003.85 1003.61 1003.40 1003.22 1003.07 1002.93 1002.78 1002.60 1002.39 1002.15 1001.88 1001.59 1001.33 1001.09 1000.92 1000.81 1000.78 1000.82 1000.92 1001.05
1008.80 1008.23 1007.61 1006.95 1006.27 1005.60 1004.97 1004.43 1003.99 1003.69 1003.53 1003.50 1003.58 1003.74 1003.93 1004.12 1004.26 1004.33 1004.32 1004.21 1004.04 1003.82 1003.57 1003.32 1003.10 1002.90 1002.74 1002.58 1002.43 1002.25 1002.04 1001.78 1001.48 1001.14 1000.80 1000.47 1000.18 999.96 999.83 999.79 999.84 999.96 1000.12
Thickness
5747 5744 5741 5738 5735 5732 5728 5725 5721 5718 5715 5712 5709 5707 5705 5703 5701 5697 5692 5689 5686 5684 5681 5680 5678 5676 5675 5673 5672 5671 5670 5671 5671 5671 5671 5674 5676 5675 5674 5674 5674 5675 5674
5742 5738 5736 5734 5731 5727 5724 5721 5717 5714 5711 5707 5704 5702 5699 5697 5695 5692 5687 5684 5681 5678 5677 5674 5672 5671 5669 5667 5665 5663 5663 5665 5664 5662 5661 5663 5665 5667 5669 5668 5668 5669 5670
5739 5735 5732 5731 5728 5724 5720 5717 5712 5709 5705 5702 5701 5698 5694 5692 5690 5685 5682 5679 5675 5672 5670 5668 5666 5665 5664 5662 5659 5657 5656 5656 5657 5657 5655 5654 5656 5658 5661 5662 5663 5663 5664
5740 5735 5731 5728 5724 5721 5717 5712 5708 5703 5700 5698 5695 5691 5688 5685 5682 5680 5677 5673 5670 5668 5665 5663 5661 5659 5658 5655 5654 5653 5651 5649 5650 5650 5650 5649 5650 5647 5650 5654 5657 5657 5657
5740 5733 5729 5725 5721 5717 5712 5707 5702 5698 5695 5692 5689 5686 5684 5682 5679 5675 5671 5668 5667 5664 5661 5659 5656 5654 5653 5650 5648 5647 5645 5645 5644 5644 5644 5643 5643 5644 5642 5643 5648 5651 5652
5737 5731 5727 5722 5718 5714 5709 5703 5697 5693 5690 5687 5684 5681 5678 5675 5671 5668 5665 5664 5663 5661 5658 5655 5652 5650 5648 5645 5643 5641 5640 5638 5637 5638 5639 5638 5638 5639 5638 5638 5639 5642 5645
5733 5726 5722 5718 5713 5709 5704 5700 5694 5689 5686 5683 5679 5676 5673 5670 5667 5664 5662 5660 5659 5657 5653 5650 5647 5645 5643 5640 5638 5636 5635 5634 5632 5632 5633 5635 5635 5635 5634 5632 5634 5636 5639
5731 5724 5720 5715 5710 5705 5700 5696 5691 5687 5683 5680 5676 5673 5670 5668 5665 5661 5659 5657 5655 5653 5649 5646 5644 5641 5639 5637 5634 5633 5631 5629 5628 5628 5627 5628 5630 5629 5629 5628 5628 5628 5632
5727 5722 5717 5713 5707 5702 5697 5693 5689 5685 5681 5677 5673 5670 5667 5664 5661 5658 5656 5655 5651 5649 5646 5644 5642 5639 5636 5633 5631 5629 5627 5625 5624 5624 5623 5623 5624 5624 5624 5623 5623 5622 5624
5724 5719 5714 5709 5705 5700 5695 5691 5686 5682 5679 5675 5671 5669 5665 5661 5658 5656 5652 5650 5647 5645 5643 5641 5639 5636 5634 5631 5628 5627 5624 5622 5621 5619 5617 5618 5619 5620 5620 5619 5620 5620 5621
5721 5716 5712 5708 5702 5698 5693 5687 5683 5679 5676 5673 5669 5665 5662 5659 5656 5653 5650 5647 5645 5643 5641 5639 5637 5634 5631 5628 5625 5623 5621 5619 5617 5616 5615 5614 5614 5615 5615 5616 5616 5617 5618
5718 5714 5709 5705 5700 5695 5690 5686 5681 5678 5675 5671 5667 5664 5660 5657 5654 5652 5649 5646 5643 5641 5639 5636 5634 5631 5629 5626 5623 5621 5619 5617 5615 5613 5612 5612 5612 5610 5610 5610 5611 5612 5613
5714 5710 5706 5701 5697 5692 5688 5684 5680 5677 5674 5671 5666 5662 5659 5656 5653 5650 5647 5644 5642 5639 5637 5634 5631 5629 5626 5623 5621 5619 5617 5615 5613 5612 5611 5610 5608 5606 5606 5606 5608 5609 5610
5710 5706 5702 5698 5694 5690 5686 5683 5679 5676 5673 5669 5665 5661 5657 5654 5651 5648 5646 5643 5640 5637 5634 5632 5629 5627 5624 5621 5619 5617 5615 5613 5611 5610 5608 5607 5606 5604 5603 5604 5603 5604 5604
5706 5702 5698 5695 5692 5688 5684 5681 5677 5674 5671 5668 5664 5660 5657 5654 5650 5647 5644 5641 5639 5636 5633 5630 5627 5625 5622 5618 5615 5614 5613 5610 5609 5608 5606 5604 5601 5599 5599 5601 5601 5601 5601
5702 5699 5696 5693 5689 5686 5683 5679 5676 5673 5670 5667 5664 5661 5657 5653 5649 5646 5643 5640 5637 5635 5632 5629 5626 5623 5620 5613 5609 5607 5609 5608 5607 5605 5604 5603 5600 5597 5595 5595 5595 5595 5597
5701 5697 5694 5691 5688 5684 5681 5677 5674 5671 5668 5665 5662 5659 5656 5652 5649 5646 5643 5639 5636 5633 5630 5628 5625 5621 5616 5610 5606 5604 5605 5606 5604 5602 5601 5602 5601 5598 5597 5595 5593 5592 5591
5699 5696 5693 5690 5687 5683 5680 5676 5673 5670 5667 5663 5660 5658 5655 5651 5648 5645 5641 5638 5635 5632 5629 5627 5624 5620 5615 5608 5604 5602 5604 5604 5602 5601 5599 5597 5596 5597 5595 5596 5595 5594 5593
5698 5695 5692 5689 5684 5681 5677 5674 5671 5668 5665 5662 5659 5656 5654 5651 5647 5644 5640 5637 5634 5631 5629 5627 5624 5620 5615 5608 5604 5600 5605 5604 5602 5600 5599 5596 5595 5592 5591 5593 5593 5593 5592
5696 5693 5690 5687 5682 5678 5675 5671 5668 5666 5663 5661 5658 5655 5653 5649 5646 5643 5640 5637 5634 5631 5629 5626 5623 5619 5615 5608 5603 5599 5605 5604 5603 5601 5599 5593 5592 5590 5589 5591 5592 5592 5592
5692 5690 5687 5683 5680 5676 5672 5669 5666 5664 5663 5661 5658 5654 5651 5648 5645 5642 5639 5636 5634 5631 5628 5626 5623 5619 5614 5609 5603 5599 5602 5602 5602 5602 5600 5596 5589 5588 5587 5588 5590 5589 5588
5688 5686 5683 5680 5677 5674 5670 5667 5664 5663 5662 5659 5656 5653 5649 5648 5646 5641 5638 5635 5632 5631 5628 5625 5623 5620 5615 5609 5604 5599 5596 5595 5597 5598 5597 5593 5587 5585 5584 5586 5585 5585 5586
5683 5681 5679 5676 5674 5671 5669 5665 5664 5662 5660 5657 5654 5651 5648 5646 5643 5640 5637 5635 5632 5631 5629 5627 5623 5620 5616 5611 5604 5600 5597 5594 5594 5595 5590 5588 5586 5585 5586 5584 5584 5585 5587
5678 5677 5675 5672 5669 5668 5667 5665 5663 5660 5657 5654 5652 5650 5647 5644 5641 5639 5638 5635 5633 5630 5628 5625 5622 5620 5616 5612 5607 5604 5602 5597 5596 5596 5592 5589 5587 5587 5586 5587 5587 5587 5586
5673 5673 5670 5668 5666 5665 5663 5662 5660 5657 5654 5651 5650 5649 5647 5644 5639 5637 5634 5633 5629 5626 5622 5622 5620 5616 5613 5605 5598 5597 5599 5598 5596 5594 5596 5595 5594 5592 5592 5591 5590 5588 5587
5668 5667 5666 5665 5663 5661 5660 5659 5657 5655 5651 5649 5647 5648 5646 5643 5641 5638 5634 5628 5625 5620 5616 5612 5610 5610 5604 5599 5596 5593 5591 5590 5588 5591 5594 5593 5592 5591 5590 5590 5589 5587 5586